Regional Weather Roundup
Issued by NWS State College, PA

Home | Current Version | Previous Version | Text Only | Print | Product List | Glossary Off
Versions: 1 2 3 4 5 6 7 8 9 10 11 12 13 14 15 16 17 18 19 20 21 22 23 24 25 26 27 28 29 30 31 32 33 34 35 36 37 38 39 40 41 42 43 44 45 46 47 48 49 50

000
ASUS41 KCTP 191103
RWRCTP

REGIONAL WEATHER ROUNDUP
NATIONAL WEATHER SERVICE STATE COLLEGE PA
600 AM EST THU JAN 19 2017

Note: "fair" indicates few or no clouds below 12,000 feet with no
significant weather and/or obstructions to visibility.

* = STATION THAT DOES NOT REPORT PRECIPITATION /E.G. RAIN...SNOW...ETC/
    THUNDER OR FOG.

PAZ002>004-007>009-013>016-020>023-029>032-191200-
WESTERN PENNSYLVANIA

CITY           SKY/WX    TMP DP  RH WIND       PRES   REMARKS
ERIE           CLOUDY    36  34  92 W6        30.07S FOG
MEADVILLE      CLOUDY    35  33  92 SW7       30.05R
FRANKLIN*        N/A     36  30  80 W6        30.07R
NEW CASTLE     CLOUDY    37  34  89 SW7       30.09R
BEAVER COUNTY  NOT AVBL
BUTLER*        CLOUDY    36  34  93 W7        30.09S
PITTSBURGH INT CLOUDY    38  35  89 SW7       30.08R
PITTSBURGH     CLOUDY    37  32  82 SW6       30.08R
INDIANA*       CLOUDY    37  36  93 W10G18    30.09R
LATROBE        CLOUDY    37  36  93 SW5       30.09S
WASHINGTON CO* CLOUDY    37  34  87 SW7       30.09R
$$

PAZ004>006-010>012-017>019-024>028-033>037-041-042-045-046-049>053-191200-
CENTRAL PENNSYLVANIA

CITY           SKY/WX    TMP DP  RH WIND       PRES   REMARKS
BRADFORD       CLOUDY    33  33 100 W7        30.00R
DUBOIS         CLOUDY    35  32  88 W10       30.03R
CLEARFIELD     CLOUDY    37  34  89 SW7       30.05R
JOHNSTOWN      FOG       33  33 100 W15       30.01S VSB 1/4
ALTOONA        CLOUDY    38  34  85 W3        30.05R
STATE COLLEGE  CLOUDY    37  34  87 W8        30.04S
WILLIAMSPORT   CLOUDY    40  35  83 CALM      30.03S
SELINSGROVE    CLOUDY    36  36 100 CALM      30.05S
FT INDIANTOWN  CLOUDY    40  37  90 SW3       30.05S
CAPITAL CITY   CLOUDY    43  34  70 CALM      30.06S
HARRISBURG     CLOUDY    41  36  82 NW3       30.05S
YORK           CLOUDY    41  36  82 W3        30.06R
$$

PAZ038>040-043-044-047-048-054-055-060>062-067>071-191200-
EASTERN PENNSYLVANIA

CITY           SKY/WX    TMP DP  RH WIND       PRES   REMARKS
SCRANTON       CLOUDY    37  37 100 SW3       30.00S FOG
MOUNT POCONO   CLOUDY    34  32  92 NW9       29.95F
ALLENTOWN      CLEAR     39  33  79 W5        30.03R
QUAKERTOWN*    SUNNY     37  36  93 W5        30.03S
READING        CLOUDY    41  34  76 CALM      30.04R
LANCASTER      CLOUDY    40  37  89 W5        30.05S
COATESVILLE    CLOUDY    41  36  81 W7        30.05R
POTTSTOWN        N/A     37  34  89 W3        30.05S
BLUE BELL      PTCLDY    37  36  93 CALM      30.03S
DOYLESTOWN     CLEAR     40  35  83 W5        30.02S
WILLOW GROVE   NOT AVBL
NORTH PHILA    PTCLDY    41  36  82 W3        30.05S
PHILADELPHIA   CLOUDY    45  36  70 NW5       30.06S
$$




USA.gov is the U.S. government's official web portal to all federal, state and local government web resources and services.